Weather History for KSKF - November, 2012

Change the Weather History Date:

Thursday, November 29, 2012

  Actual Average Record
Temperature  
Mean Temperature 55 °F -  
Max Temperature 70 °F 67 °F 82 °F (1998)
Min Temperature 40 °F 46 °F 30 °F (2003)
Degree Days  
Heating Degree Days 10    
Growing Degree Days 5 (Base 50)    
Moisture  
Dew Point 50 °F    
Average Humidity 79    
Maximum Humidity 95    
Minimum Humidity 56    
Precipitation  
Precipitation 0.00 in - - ()
Sea Level Pressure  
Sea Level Pressure 30.20 in    
Wind  
Wind Speed 2 mph (SE)    
Max Wind Speed 10 mph    
Max Gust Speed -    
Visibility 10 miles    
Events Rain    
Averages and records for this station are not official NWS values.
T = Trace of Precipitation, MM = Missing Value Source: NWS Daily Summary

Daily Weather History Graph

Daily Weather History Graph

Search for Another Location

Airport or City:

Trip Planner

Search our weather history database for the weather conditions in past years. The results will help you decide how hot, cold, wet, or windy it might be!

Date:

Astronomy

Nov. 29, 2012 Rise Set
Actual Time 7:10 AM CST 5:35 PM CST
Civil Twilight 6:44 AM CST 6:01 PM CST
Nautical Twilight 6:15 AM CST 6:30 PM CST
Astronomical Twilight 5:46 AM CST 6:59 PM CST
Moon 6:39 PM CST (11/29) 7:57 AM CST (11/29)
Length of Visible Light 11h 16m
Length of Day
10h 25m
Full, 99% of the Moon is Illuminated
Nov 29
Full
Dec 6
Last Quarter
Dec 13
New
Dec 19
First Quarter
Dec 28
Full

Hourly Weather History & Observations

Time (CST) Temp. Windchill Dew Point Humidity Pressure Visibility Wind Dir Wind Speed Gust Speed Precip Events Conditions
12:55 AM 45.0 °F - 42.6 °F 91% 30.28 in 10.0 mi Calm Calm - N/A   Clear
1:55 AM 44.4 °F - 42.3 °F 92% 30.26 in 10.0 mi Calm Calm - N/A   Clear
2:55 AM 40.6 °F - 38.8 °F 93% 30.25 in 10.0 mi Calm Calm - N/A   Clear
3:32 AM 42.8 °F - 41.0 °F 93% 30.24 in 10.0 mi Calm Calm - N/A   Mostly Cloudy
3:38 AM 42.8 °F - 41.0 °F 93% 30.24 in 10.0 mi Calm Calm - N/A   Scattered Clouds
3:55 AM 42.1 °F - 40.6 °F 95% 30.23 in 10.0 mi Calm Calm - N/A   Partly Cloudy
4:55 AM 40.8 °F - 39.0 °F 93% 30.22 in 8.0 mi Calm Calm - N/A   Clear
5:55 AM 42.1 °F 40.2 °F 40.5 °F 94% 30.21 in 10.0 mi NNW 3.5 mph - N/A   Clear
6:55 AM 42.4 °F - 41.0 °F 95% 30.23 in 10.0 mi Calm Calm - N/A   Clear
7:53 AM 44.6 °F - 42.8 °F 93% 30.24 in 10.0 mi Calm Calm - N/A   Mostly Cloudy
7:55 AM 44.1 °F - 42.4 °F 94% 30.24 in 10.0 mi Calm Calm - N/A   Scattered Clouds
8:55 AM 50.9 °F - 48.4 °F 91% 30.25 in 10.0 mi Calm Calm - N/A   Partly Cloudy
9:04 AM 51.8 °F - 48.2 °F 88% 30.25 in 10.0 mi Calm Calm - N/A   Mostly Cloudy
9:12 AM 53.6 °F - 48.2 °F 82% 30.25 in 10.0 mi Variable 4.6 mph - N/A   Mostly Cloudy
9:13 AM 53.6 °F - 50.0 °F 88% 30.25 in 10.0 mi East 4.6 mph - N/A   Mostly Cloudy
9:30 AM 55.4 °F - 48.2 °F 77% 30.25 in 10.0 mi East 4.6 mph - N/A   Mostly Cloudy
9:33 AM 55.4 °F - 48.2 °F 77% 30.25 in 10.0 mi Calm Calm - N/A   Scattered Clouds
9:55 AM 58.3 °F - 50.0 °F 74% 30.25 in 10.0 mi East 5.8 mph - N/A   Clear
10:55 AM 61.0 °F - 51.1 °F 70% 30.24 in 10.0 mi SE 3.5 mph - N/A   Clear
11:55 AM 65.1 °F - 53.2 °F 65% 30.21 in 10.0 mi ESE 6.9 mph - N/A   Clear
12:23 PM 66.2 °F - 53.6 °F 64% 30.20 in 10.0 mi SE 6.9 mph - N/A Rain Light Rain
12:55 PM 69.1 °F - 54.5 °F 60% 30.18 in 10.0 mi SSE 4.6 mph - N/A   Scattered Clouds
1:55 PM 69.8 °F - 53.6 °F 56% 30.13 in 10.0 mi South 10.4 mph - N/A   Mostly Cloudy
2:55 PM 70.3 °F - 54.3 °F 57% 30.13 in 10.0 mi South 6.9 mph - N/A   Overcast
3:55 PM 69.6 °F - 54.3 °F 58% 30.12 in 10.0 mi SSE 8.1 mph - N/A   Overcast
4:55 PM 67.8 °F - 55.2 °F 64% 30.12 in 10.0 mi South 3.5 mph - N/A   Overcast
5:55 PM 66.6 °F - 55.0 °F 66% 30.12 in 10.0 mi Calm Calm - N/A   Overcast
6:55 PM 65.1 °F - 55.8 °F 72% 30.14 in 10.0 mi Calm Calm - N/A   Overcast
7:55 PM 64.4 °F - 56.7 °F 76% 30.14 in 10.0 mi ENE 3.5 mph - N/A   Overcast
8:32 PM 66.2 °F - 57.2 °F 73% 30.14 in 10.0 mi Calm Calm - N/A   Overcast
8:33 PM 66.2 °F - 57.2 °F 73% 30.14 in 10.0 mi Calm Calm - N/A   Overcast
8:41 PM 64.4 °F - 57.2 °F 77% 30.14 in 10.0 mi Calm Calm - N/A   Overcast
8:55 PM 64.4 °F - 56.3 °F 75% 30.14 in 10.0 mi Calm Calm - N/A   Overcast
9:55 PM 63.3 °F - 56.1 °F 77% 30.14 in 10.0 mi Calm Calm - N/A   Overcast
10:03 PM 62.6 °F - 55.4 °F 77% 30.15 in 10.0 mi Calm Calm - N/A   Overcast
10:55 PM 62.8 °F - 55.9 °F 78% 30.15 in 10.0 mi SSE 5.8 mph - N/A   Overcast
11:55 PM 61.5 °F - 56.5 °F 83% 30.15 in 10.0 mi SSE 4.6 mph - N/A   Overcast